CZ-6A DEB, 61490

Orbit data source: Space-Track

CZ-6A DEB, 61490 is space debris in LEO originally from a launch on Tue, 06 Aug 2024 UTC launched from the Taiyaun Space Center, China (TSC). Debris objects in space refer to the collection of defunct objects orbiting the Earth. Examples of debris include non-operational satellites, rocket bodies, and fragments generated from explosions, collisions, or faulty payload assembly.

Loading next visibility...
Identifier
61490, 2024-140AAY
Orbit
LEO
Country
Flag of CNCN / PRC
Related business
Manufacturer
SAST
Mission
Spacecraft
Bus & Motor
Unknown
Mass
Unknown
Launch date (UTC)
2024-08-06 (2 years ago)
Launch vehicle
Unknown
Launch site
Taiyaun Space Center, China (TSC)
Object type
Payload
Rocket body
Debris
Shape & HBR
Unknown shape, 0.1 m
Radar Cross Section
Medium (>0.1 m² and <1 m²)

Expand to show TLE details & history
Last TLE update: 15 hours ago

TLE from 15 hours ago
0 CZ-6A DEB
1 61490U 24140AAY 26171.24238919  .00000975  00000-0  41209-3 0  9996
2 61490  88.9964 273.5439 0036944 187.2954 172.7706 14.24439747 92041
Epoch: 2026-06-20T05:49Z
TLE epoch observation values (Epoch: 2026-06-20T05:49:02.426Z)
Latitude
-0°
Longitude
-82.17603°
Altitude
839.79 km
Speed
7.419 km/s
True Right ascension
18h 14m 10s
True Declination
0° 00' 00"
Sunlit
Object was in full shadow at epoch
Visualization orbit readout
Latitude
Unknown
Longitude
Unknown
Altitude
Unknown
Speed
Unknown
Apparent Right ascension
Unknown
Apparent Declination
Unknown
Sunlit
N/A
Visualization observer readout
Local Sidereal Time
07:21:52
Azimuth
Unknown
Elevation
Unknown
Doppler factor
Unknown
Orbital elements
Apogee altitude
833.868 km
Perigee altitude
780.776 km
Semi-major axis
7,185.459 km
Eccentricity
0.00369
Inclination
88.9964°
RAAN
273.5439°
Arg. of periapsis
187.2954°
True anomaly
172.82363°
Mean anomaly
172.7706°
Eccentric anomaly
172.79714°
Mean motion
3.56337 °/min
Orbital period
101.03 mins
BSTAR
0.00041209
Loading maneuver chart data...
Computing Atmospheric mass density...
Loading historical data...
Loading historical data...
Loading historical data...
Loading historical data...
Loading historical data...
Loading historical data...
Loading historical data...

Documentation

Showing up to 5 results
|